Location: Strada George Coșbuc
(47.6577°N, 23.5639°E)
Time: 02:02:48
(UTC+03:00)

ISS - Pass Details

Date: 07 October 2017
Orbit: 401 x 408 km, 51.6° (Epoch: 23 October)

Event Time Altitude Azimuth Distance (km) Brightness Sun altitude
Rises 19:54:37 0° 286° (WNW) 2,326 1.9 -11.2°
Reaches altitude 10° 19:56:46 10° 294° (WNW) 1,467 0.3 -11.5°
Maximum altitude 19:59:55 41° 6° (N) 606 -3.0 -12.1°
Enters shadow 20:01:52 19° 69° (ENE) 1,031 -2.3 -12.4°
